Year,Month,Day,Hour,Minute,Value (Times are PST for temperature in C)
2011,06,17,00,00,11.00
2011,06,17,00,01,10.90
2011,06,17,00,02,10.90
2011,06,17,00,03,10.80
2011,06,17,00,04,10.80
2011,06,17,00,05,10.70
2011,06,17,00,06,10.70
2011,06,17,00,07,10.70
2011,06,17,00,08,10.60
2011,06,17,00,09,10.60
2011,06,17,00,10,10.60
2011,06,17,00,11,10.50
2011,06,17,00,12,10.50
2011,06,17,00,13,10.40
2011,06,17,00,14,10.40
2011,06,17,00,15,10.30
2011,06,17,00,16,10.30
2011,06,17,00,17,10.30
2011,06,17,00,18,10.30
2011,06,17,00,19,10.20
2011,06,17,00,20,10.20
2011,06,17,00,21,10.20
2011,06,17,00,22,10.20
2011,06,17,00,23,10.20
2011,06,17,00,24,10.20
2011,06,17,00,25,10.20
2011,06,17,00,26,10.20
2011,06,17,00,27,10.20
2011,06,17,00,28,10.20
2011,06,17,00,29,10.20
2011,06,17,00,30,10.20
2011,06,17,00,31,10.20
2011,06,17,00,32,10.30
2011,06,17,00,33,10.30
2011,06,17,00,34,10.30
2011,06,17,00,35,10.20
2011,06,17,00,36,10.20
2011,06,17,00,37,10.20
2011,06,17,00,38,10.20
2011,06,17,00,39,10.10
2011,06,17,00,40,10.10
2011,06,17,00,41,10.10
2011,06,17,00,42,10.00
2011,06,17,00,43,10.00
2011,06,17,00,44,9.90
2011,06,17,00,45,9.90
2011,06,17,00,46,9.90
2011,06,17,00,47,9.80
2011,06,17,00,48,9.80
2011,06,17,00,49,9.80
2011,06,17,00,50,9.80
2011,06,17,00,51,9.80
2011,06,17,00,52,9.80
2011,06,17,00,53,9.80
2011,06,17,00,54,9.70
2011,06,17,00,55,9.80
2011,06,17,00,56,9.80
2011,06,17,00,57,9.80
2011,06,17,00,58,9.80
2011,06,17,00,59,9.80
2011,06,17,01,00,9.80
2011,06,17,01,01,9.80
2011,06,17,01,02,9.80
2011,06,17,01,03,9.80
2011,06,17,01,04,9.80
2011,06,17,01,05,9.80
2011,06,17,01,06,9.80
2011,06,17,01,07,9.80
2011,06,17,01,08,9.70
2011,06,17,01,09,9.70
2011,06,17,01,10,9.60
2011,06,17,01,11,9.60
2011,06,17,01,12,9.60
2011,06,17,01,13,9.50
2011,06,17,01,14,9.50
2011,06,17,01,15,9.50
2011,06,17,01,16,9.40
2011,06,17,01,17,9.40
2011,06,17,01,18,9.40
2011,06,17,01,19,9.40
2011,06,17,01,20,9.30
2011,06,17,01,21,9.30
2011,06,17,01,22,9.30
2011,06,17,01,23,9.30
2011,06,17,01,24,9.20
2011,06,17,01,25,9.20
2011,06,17,01,26,9.20
2011,06,17,01,27,9.10
2011,06,17,01,28,9.10
2011,06,17,01,29,9.10
2011,06,17,01,30,9.10
2011,06,17,01,31,9.00
2011,06,17,01,32,9.00
2011,06,17,01,33,9.00
2011,06,17,01,34,9.00
2011,06,17,01,35,8.90
2011,06,17,01,36,8.90
2011,06,17,01,37,8.90
2011,06,17,01,38,8.90
2011,06,17,01,39,8.90
2011,06,17,01,40,8.90
2011,06,17,01,41,8.90
2011,06,17,01,42,8.90
2011,06,17,01,43,8.90
2011,06,17,01,44,8.90
2011,06,17,01,45,8.90
2011,06,17,01,46,8.90
2011,06,17,01,47,8.90
2011,06,17,01,48,8.90
2011,06,17,01,49,8.90
2011,06,17,01,50,8.90
2011,06,17,01,51,8.90
2011,06,17,01,52,8.90
2011,06,17,01,53,8.90
2011,06,17,01,54,8.90
2011,06,17,01,55,8.90
2011,06,17,01,56,8.90
2011,06,17,01,57,8.90
2011,06,17,01,58,8.90
2011,06,17,01,59,8.80
2011,06,17,02,00,8.80
2011,06,17,02,01,8.80
2011,06,17,02,02,8.90
2011,06,17,02,03,8.90
2011,06,17,02,04,8.90
2011,06,17,02,05,8.90
2011,06,17,02,06,8.90
2011,06,17,02,07,8.90
2011,06,17,02,08,8.90
2011,06,17,02,09,8.90
2011,06,17,02,10,8.90
2011,06,17,02,11,8.80
2011,06,17,02,12,8.80
2011,06,17,02,13,8.70
2011,06,17,02,14,8.70
2011,06,17,02,15,8.70
2011,06,17,02,16,8.70
2011,06,17,02,17,8.60
2011,06,17,02,18,8.60
2011,06,17,02,19,8.60
2011,06,17,02,20,8.60
2011,06,17,02,21,8.60
2011,06,17,02,22,8.60
2011,06,17,02,23,8.50
2011,06,17,02,24,8.50
2011,06,17,02,25,8.50
2011,06,17,02,26,8.50
2011,06,17,02,27,8.50
2011,06,17,02,28,8.50
2011,06,17,02,29,8.50
2011,06,17,02,30,8.50
2011,06,17,02,31,8.40
2011,06,17,02,32,8.40
2011,06,17,02,33,8.40
2011,06,17,02,34,8.40
2011,06,17,02,35,8.40
2011,06,17,02,36,8.40
2011,06,17,02,37,8.40
2011,06,17,02,38,8.40
2011,06,17,02,39,8.40
2011,06,17,02,40,8.40
2011,06,17,02,41,8.40
2011,06,17,02,42,8.40
2011,06,17,02,43,8.30
2011,06,17,02,44,8.30
2011,06,17,02,45,8.30
2011,06,17,02,46,8.30
2011,06,17,02,47,8.30
2011,06,17,02,48,8.30
2011,06,17,02,49,8.30
2011,06,17,02,50,8.30
2011,06,17,02,51,8.30
2011,06,17,02,52,8.30
2011,06,17,02,53,8.30
2011,06,17,02,54,8.20
2011,06,17,02,55,8.20
2011,06,17,02,56,8.20
2011,06,17,02,57,8.10
2011,06,17,02,58,8.10
2011,06,17,02,59,8.10
2011,06,17,03,00,8.10
2011,06,17,03,01,8.10
2011,06,17,03,02,8.10
2011,06,17,03,03,8.00
2011,06,17,03,04,8.00
2011,06,17,03,05,8.00
2011,06,17,03,06,8.00
2011,06,17,03,07,7.90
2011,06,17,03,08,7.90
2011,06,17,03,09,7.90
2011,06,17,03,10,7.90
2011,06,17,03,11,7.80
2011,06,17,03,12,7.80
2011,06,17,03,13,7.80
2011,06,17,03,14,7.80
2011,06,17,03,15,7.80
2011,06,17,03,16,7.80
2011,06,17,03,17,7.70
2011,06,17,03,18,7.70
2011,06,17,03,19,7.70
2011,06,17,03,20,7.70
2011,06,17,03,21,7.70
2011,06,17,03,22,7.70
2011,06,17,03,23,7.70
2011,06,17,03,24,7.70
2011,06,17,03,25,7.70
2011,06,17,03,26,7.70
2011,06,17,03,27,7.70
2011,06,17,03,28,7.60
2011,06,17,03,29,7.60
2011,06,17,03,30,7.60
2011,06,17,03,31,7.60
2011,06,17,03,32,7.60
2011,06,17,03,33,7.60
2011,06,17,03,34,7.60
2011,06,17,03,35,7.60
2011,06,17,03,36,7.60
2011,06,17,03,37,7.60
2011,06,17,03,38,7.60
2011,06,17,03,39,7.60
2011,06,17,03,40,7.70
2011,06,17,03,41,7.70
2011,06,17,03,42,7.70
2011,06,17,03,43,7.70
2011,06,17,03,44,7.70
2011,06,17,03,45,7.70
2011,06,17,03,46,7.70
2011,06,17,03,47,7.70
2011,06,17,03,48,7.70
2011,06,17,03,49,7.70
2011,06,17,03,50,7.70
2011,06,17,03,51,7.70
2011,06,17,03,52,7.70
2011,06,17,03,53,7.70
2011,06,17,03,54,7.70
2011,06,17,03,55,7.70
2011,06,17,03,56,7.70
2011,06,17,03,57,7.70
2011,06,17,03,58,7.60
2011,06,17,03,59,7.60
2011,06,17,04,00,7.60
2011,06,17,04,01,7.60
2011,06,17,04,02,7.60
2011,06,17,04,03,7.60
2011,06,17,04,04,7.50
2011,06,17,04,05,7.50
2011,06,17,04,06,7.40
2011,06,17,04,07,7.40
2011,06,17,04,08,7.40
2011,06,17,04,09,7.30
2011,06,17,04,10,7.30
2011,06,17,04,11,7.30
2011,06,17,04,12,7.30
2011,06,17,04,13,7.30
2011,06,17,04,14,7.30
2011,06,17,04,15,7.20
2011,06,17,04,16,7.20
2011,06,17,04,17,7.20
2011,06,17,04,18,7.20
2011,06,17,04,19,7.20
2011,06,17,04,20,7.20
2011,06,17,04,21,7.20
2011,06,17,04,22,7.20
2011,06,17,04,23,7.10
2011,06,17,04,24,7.20
2011,06,17,04,25,7.10
2011,06,17,04,26,7.10
2011,06,17,04,27,7.10
2011,06,17,04,28,7.20
2011,06,17,04,29,7.10
2011,06,17,04,30,7.20
2011,06,17,04,31,7.20
2011,06,17,04,32,7.10
2011,06,17,04,33,7.10
2011,06,17,04,34,7.10
2011,06,17,04,35,7.10
2011,06,17,04,36,7.10
2011,06,17,04,37,7.10
2011,06,17,04,38,7.10
2011,06,17,04,39,7.10
2011,06,17,04,40,7.00
2011,06,17,04,41,7.00
2011,06,17,04,42,7.00
2011,06,17,04,43,6.90
2011,06,17,04,44,6.90
2011,06,17,04,45,6.90
2011,06,17,04,46,6.90
2011,06,17,04,47,6.90
2011,06,17,04,48,6.90
2011,06,17,04,49,6.90
2011,06,17,04,50,6.90
2011,06,17,04,51,6.90
2011,06,17,04,52,6.80
2011,06,17,04,53,6.80
2011,06,17,04,54,6.80
2011,06,17,04,55,6.80
2011,06,17,04,56,6.80
2011,06,17,04,57,6.80
2011,06,17,04,58,6.80
2011,06,17,04,59,6.80
2011,06,17,05,00,6.80
2011,06,17,05,01,6.80
2011,06,17,05,02,6.80
2011,06,17,05,03,6.80
2011,06,17,05,04,6.80
2011,06,17,05,05,6.80
2011,06,17,05,06,6.80
2011,06,17,05,07,6.80
2011,06,17,05,08,6.80
2011,06,17,05,09,6.80
2011,06,17,05,10,6.80
2011,06,17,05,11,6.80
2011,06,17,05,12,6.80
2011,06,17,05,13,6.80
2011,06,17,05,14,6.80
2011,06,17,05,15,6.80
2011,06,17,05,16,6.70
2011,06,17,05,17,6.70
2011,06,17,05,18,6.70
2011,06,17,05,19,6.70
2011,06,17,05,20,6.70
2011,06,17,05,21,6.70
2011,06,17,05,22,6.70
2011,06,17,05,23,6.70
2011,06,17,05,24,6.70
2011,06,17,05,25,6.70
2011,06,17,05,26,6.70
2011,06,17,05,27,6.70
2011,06,17,05,28,6.70
2011,06,17,05,29,6.70
2011,06,17,05,30,6.70
2011,06,17,05,31,6.70
2011,06,17,05,32,6.70
2011,06,17,05,33,6.60
2011,06,17,05,34,6.60
2011,06,17,05,35,6.60
2011,06,17,05,36,6.60
2011,06,17,05,37,6.60
2011,06,17,05,38,6.50
2011,06,17,05,39,6.50
2011,06,17,05,40,6.50
2011,06,17,05,41,6.50
2011,06,17,05,42,6.50
2011,06,17,05,43,6.60
2011,06,17,05,44,6.60
2011,06,17,05,45,6.50
2011,06,17,05,46,6.50
2011,06,17,05,47,6.50
2011,06,17,05,48,6.50
2011,06,17,05,49,6.50
2011,06,17,05,50,6.50
2011,06,17,05,51,6.50
2011,06,17,05,52,6.50
2011,06,17,05,53,6.60
2011,06,17,05,54,6.60
2011,06,17,05,55,6.70
2011,06,17,05,56,6.70
2011,06,17,05,57,6.70
2011,06,17,05,58,6.80
2011,06,17,05,59,6.90
2011,06,17,06,00,6.90
2011,06,17,06,01,7.00
2011,06,17,06,02,7.00
2011,06,17,06,03,7.10
2011,06,17,06,04,7.20
2011,06,17,06,05,7.20
2011,06,17,06,06,7.20
2011,06,17,06,07,7.30
2011,06,17,06,08,7.30
2011,06,17,06,09,7.30
2011,06,17,06,10,7.30
2011,06,17,06,11,7.40
2011,06,17,06,12,7.40
2011,06,17,06,13,7.50
2011,06,17,06,14,7.60
2011,06,17,06,15,7.60
2011,06,17,06,16,7.70
2011,06,17,06,17,7.80
2011,06,17,06,18,7.90
2011,06,17,06,19,8.00
2011,06,17,06,20,8.10
2011,06,17,06,21,8.20
2011,06,17,06,22,8.30
2011,06,17,06,23,8.30
2011,06,17,06,24,8.50
2011,06,17,06,25,8.50
2011,06,17,06,26,8.60
2011,06,17,06,27,8.70
2011,06,17,06,28,8.80
2011,06,17,06,29,8.90
2011,06,17,06,30,9.00
2011,06,17,06,31,9.10
2011,06,17,06,32,9.20
2011,06,17,06,33,9.30
2011,06,17,06,34,9.30
2011,06,17,06,35,9.40
2011,06,17,06,36,9.40
2011,06,17,06,37,9.50
2011,06,17,06,38,9.60
2011,06,17,06,39,9.60
2011,06,17,06,40,9.70
2011,06,17,06,41,9.80
2011,06,17,06,42,9.80
2011,06,17,06,43,9.90
2011,06,17,06,44,9.90
2011,06,17,06,45,10.00
2011,06,17,06,46,10.10
2011,06,17,06,47,10.20
2011,06,17,06,48,10.30
2011,06,17,06,49,10.40
2011,06,17,06,50,10.40
2011,06,17,06,51,10.50
2011,06,17,06,52,10.60
2011,06,17,06,53,10.70
2011,06,17,06,54,10.80
2011,06,17,06,55,10.80
2011,06,17,06,56,10.90
2011,06,17,06,57,11.00
2011,06,17,06,58,11.10
2011,06,17,06,59,11.20
2011,06,17,07,00,11.30
2011,06,17,07,01,11.40
2011,06,17,07,02,11.40
2011,06,17,07,03,11.50
2011,06,17,07,04,11.50
2011,06,17,07,05,11.60
2011,06,17,07,06,11.60
2011,06,17,07,07,11.70
2011,06,17,07,08,11.70
2011,06,17,07,09,11.70
2011,06,17,07,10,11.70
2011,06,17,07,11,11.60
2011,06,17,07,12,11.60
2011,06,17,07,13,11.60
2011,06,17,07,14,11.60
2011,06,17,07,15,11.50
2011,06,17,07,16,11.50
2011,06,17,07,17,11.40
2011,06,17,07,18,11.40
2011,06,17,07,19,11.30
2011,06,17,07,20,11.30
2011,06,17,07,21,11.30
2011,06,17,07,22,11.20
2011,06,17,07,23,11.20
2011,06,17,07,24,11.20
2011,06,17,07,25,11.10
2011,06,17,07,26,11.10
2011,06,17,07,27,11.10
2011,06,17,07,28,11.10
2011,06,17,07,29,11.10
2011,06,17,07,30,11.10
2011,06,17,07,31,11.10
2011,06,17,07,32,11.20
2011,06,17,07,33,11.20
2011,06,17,07,34,11.20
2011,06,17,07,35,11.30
2011,06,17,07,36,11.30
2011,06,17,07,37,11.30
2011,06,17,07,38,11.40
2011,06,17,07,39,11.50
2011,06,17,07,40,11.60
2011,06,17,07,41,11.70
2011,06,17,07,42,11.70
2011,06,17,07,43,11.70
2011,06,17,07,44,11.70
2011,06,17,07,45,11.70
2011,06,17,07,46,11.70
2011,06,17,07,47,11.70
2011,06,17,07,48,11.70
2011,06,17,07,49,11.60
2011,06,17,07,50,11.50
2011,06,17,07,51,11.50
2011,06,17,07,52,11.50
2011,06,17,07,53,11.50
2011,06,17,07,54,11.50
2011,06,17,07,55,11.50
2011,06,17,07,56,11.40
2011,06,17,07,57,11.40
2011,06,17,07,58,11.40
2011,06,17,07,59,11.30
2011,06,17,08,00,11.30
2011,06,17,08,01,11.30
2011,06,17,08,02,11.30
2011,06,17,08,03,11.30
2011,06,17,08,04,11.30
2011,06,17,08,05,11.40
2011,06,17,08,06,11.40
2011,06,17,08,07,11.50
2011,06,17,08,08,11.60
2011,06,17,08,09,11.70
2011,06,17,08,10,11.70
2011,06,17,08,11,11.70
2011,06,17,08,12,11.70
2011,06,17,08,13,11.70
2011,06,17,08,14,11.70
2011,06,17,08,15,11.70
2011,06,17,08,16,11.80
2011,06,17,08,17,11.80
2011,06,17,08,18,11.80
2011,06,17,08,19,11.70
2011,06,17,08,20,11.70
2011,06,17,08,21,11.80
2011,06,17,08,22,11.80
2011,06,17,08,23,11.80
2011,06,17,08,24,11.80
2011,06,17,08,25,11.80
2011,06,17,08,26,11.80
2011,06,17,08,27,11.90
2011,06,17,08,28,11.90
2011,06,17,08,29,11.90
2011,06,17,08,30,11.90
2011,06,17,08,31,12.00
2011,06,17,08,32,12.00
2011,06,17,08,33,12.00
2011,06,17,08,34,12.00
2011,06,17,08,35,12.10
2011,06,17,08,36,12.10
2011,06,17,08,37,12.10
2011,06,17,08,38,12.10
2011,06,17,08,39,12.00
2011,06,17,08,40,12.00
2011,06,17,08,41,12.10
2011,06,17,08,42,12.00
2011,06,17,08,43,12.00
2011,06,17,08,44,12.10
2011,06,17,08,45,12.10
2011,06,17,08,46,12.10
2011,06,17,08,47,12.10
2011,06,17,08,48,12.00
2011,06,17,08,49,12.00
2011,06,17,08,50,12.00
2011,06,17,08,51,12.10
2011,06,17,08,52,12.10
2011,06,17,08,53,12.20
2011,06,17,08,54,12.30
2011,06,17,08,55,12.40
2011,06,17,08,56,12.40
2011,06,17,08,57,12.50
2011,06,17,08,58,12.50
2011,06,17,08,59,12.60
2011,06,17,09,00,12.60
2011,06,17,09,01,12.70
2011,06,17,09,02,12.70
2011,06,17,09,03,12.70
2011,06,17,09,04,12.70
2011,06,17,09,05,12.80
2011,06,17,09,06,12.80
2011,06,17,09,07,12.90
2011,06,17,09,08,12.90
2011,06,17,09,09,13.00
2011,06,17,09,10,13.10
2011,06,17,09,11,13.10
2011,06,17,09,12,13.20
2011,06,17,09,13,13.30
2011,06,17,09,14,13.30
2011,06,17,09,15,13.20
2011,06,17,09,16,13.10
2011,06,17,09,17,13.10
2011,06,17,09,18,13.10
2011,06,17,09,19,13.00
2011,06,17,09,20,13.00
2011,06,17,09,21,13.00
2011,06,17,09,22,13.00
2011,06,17,09,23,13.00
2011,06,17,09,24,13.00
2011,06,17,09,25,13.00
2011,06,17,09,26,13.00
2011,06,17,09,27,12.90
2011,06,17,09,28,12.90
2011,06,17,09,29,12.90
2011,06,17,09,30,12.80
2011,06,17,09,31,12.80
2011,06,17,09,32,12.80
2011,06,17,09,33,12.90
2011,06,17,09,34,13.00
2011,06,17,09,35,13.10
2011,06,17,09,36,13.10
2011,06,17,09,37,13.10
2011,06,17,09,38,13.10
2011,06,17,09,39,13.20
2011,06,17,09,40,13.20
2011,06,17,09,41,13.20
2011,06,17,09,42,13.30
2011,06,17,09,43,13.30
2011,06,17,09,44,13.40
2011,06,17,09,45,13.50
2011,06,17,09,46,13.50
2011,06,17,09,47,13.60
2011,06,17,09,48,13.60
2011,06,17,09,49,13.70
2011,06,17,09,50,13.70
2011,06,17,09,51,13.80
2011,06,17,09,52,13.80
2011,06,17,09,53,13.80
2011,06,17,09,54,13.80
2011,06,17,09,55,13.70
2011,06,17,09,56,13.70
2011,06,17,09,57,13.70
2011,06,17,09,58,13.60
2011,06,17,09,59,13.60
2011,06,17,10,00,13.60
2011,06,17,10,01,13.50
2011,06,17,10,02,13.50
2011,06,17,10,03,13.50
2011,06,17,10,04,13.50
2011,06,17,10,05,13.50
2011,06,17,10,06,13.60
2011,06,17,10,07,13.60
2011,06,17,10,08,13.60
2011,06,17,10,09,13.50
2011,06,17,10,10,13.60
2011,06,17,10,11,13.50
2011,06,17,10,12,13.50
2011,06,17,10,13,13.40
2011,06,17,10,14,13.50
2011,06,17,10,15,13.40
2011,06,17,10,16,13.40
2011,06,17,10,17,13.30
2011,06,17,10,18,13.20
2011,06,17,10,19,13.10
2011,06,17,10,20,13.10
2011,06,17,10,21,13.20
2011,06,17,10,22,13.30
2011,06,17,10,23,13.50
2011,06,17,10,24,13.70
2011,06,17,10,25,13.80
2011,06,17,10,26,13.80
2011,06,17,10,27,13.80
2011,06,17,10,28,13.70
2011,06,17,10,29,13.60
2011,06,17,10,30,13.60
2011,06,17,10,31,13.60
2011,06,17,10,32,13.60
2011,06,17,10,33,13.70
2011,06,17,10,34,13.80
2011,06,17,10,35,13.90
2011,06,17,10,36,13.90
2011,06,17,10,37,14.10
2011,06,17,10,38,14.20
2011,06,17,10,39,14.30
2011,06,17,10,40,14.30
2011,06,17,10,41,14.30
2011,06,17,10,42,14.40
2011,06,17,10,43,14.50
2011,06,17,10,44,14.60
2011,06,17,10,45,14.70
2011,06,17,10,46,14.80
2011,06,17,10,47,14.80
2011,06,17,10,48,14.80
2011,06,17,10,49,14.90
2011,06,17,10,50,15.00
2011,06,17,10,51,15.00
2011,06,17,10,52,14.90
2011,06,17,10,53,14.80
2011,06,17,10,54,14.80
2011,06,17,10,55,14.80
2011,06,17,10,56,14.90
2011,06,17,10,57,14.90
2011,06,17,10,58,14.80
2011,06,17,10,59,14.80
2011,06,17,11,00,14.70
2011,06,17,11,01,14.70
2011,06,17,11,02,14.90
2011,06,17,11,03,15.00
2011,06,17,11,04,15.00
2011,06,17,11,05,15.00
2011,06,17,11,06,15.00
2011,06,17,11,07,15.00
2011,06,17,11,08,15.00
2011,06,17,11,09,15.00
2011,06,17,11,10,15.00
2011,06,17,11,11,15.00
2011,06,17,11,12,15.00
2011,06,17,11,13,15.00
2011,06,17,11,14,15.00
2011,06,17,11,15,15.00
2011,06,17,11,16,15.10
2011,06,17,11,17,15.30
2011,06,17,11,18,15.30
2011,06,17,11,19,15.40
2011,06,17,11,20,15.50
2011,06,17,11,21,15.50
2011,06,17,11,22,15.50
2011,06,17,11,23,15.30
2011,06,17,11,24,15.30
2011,06,17,11,25,15.30
2011,06,17,11,26,15.40
2011,06,17,11,27,15.40
2011,06,17,11,28,15.60
2011,06,17,11,29,15.70
2011,06,17,11,30,15.80
2011,06,17,11,31,15.80
2011,06,17,11,32,15.80
2011,06,17,11,33,15.80
2011,06,17,11,34,15.80
2011,06,17,11,35,15.80
2011,06,17,11,36,15.80
2011,06,17,11,37,15.90
2011,06,17,11,38,15.90
2011,06,17,11,39,15.90
2011,06,17,11,40,15.80
2011,06,17,11,41,15.80
2011,06,17,11,42,15.70
2011,06,17,11,43,15.70
2011,06,17,11,44,15.70
2011,06,17,11,45,15.70
2011,06,17,11,46,15.60
2011,06,17,11,47,15.50
2011,06,17,11,48,15.40
2011,06,17,11,49,15.40
2011,06,17,11,50,15.30
2011,06,17,11,51,15.50
2011,06,17,11,52,15.60
2011,06,17,11,53,15.50
2011,06,17,11,54,15.50
2011,06,17,11,55,15.50
2011,06,17,11,56,15.60
2011,06,17,11,57,15.50
2011,06,17,11,58,15.60
2011,06,17,11,59,15.70
2011,06,17,12,00,15.80
2011,06,17,12,01,15.90
2011,06,17,12,02,15.90
2011,06,17,12,03,16.00
2011,06,17,12,04,16.10
2011,06,17,12,05,16.10
2011,06,17,12,06,16.00
2011,06,17,12,07,16.00
2011,06,17,12,08,16.10
2011,06,17,12,09,16.20
2011,06,17,12,10,16.20
2011,06,17,12,11,16.30
2011,06,17,12,12,16.30
2011,06,17,12,13,16.20
2011,06,17,12,14,16.20
2011,06,17,12,15,16.20
2011,06,17,12,16,16.20
2011,06,17,12,17,16.00
2011,06,17,12,18,15.90
2011,06,17,12,19,15.90
2011,06,17,12,20,15.80
2011,06,17,12,21,15.90
2011,06,17,12,22,16.00
2011,06,17,12,23,16.10
2011,06,17,12,24,16.20
2011,06,17,12,25,16.30
2011,06,17,12,26,16.30
2011,06,17,12,27,16.30
2011,06,17,12,28,16.20
2011,06,17,12,29,16.10
2011,06,17,12,30,16.10
2011,06,17,12,31,16.10
2011,06,17,12,32,16.00
2011,06,17,12,33,15.90
2011,06,17,12,34,16.00
2011,06,17,12,35,16.00
2011,06,17,12,36,16.10
2011,06,17,12,37,16.10
2011,06,17,12,38,16.20
2011,06,17,12,39,16.30
2011,06,17,12,40,16.30
2011,06,17,12,41,16.30
2011,06,17,12,42,16.40
2011,06,17,12,43,16.60
2011,06,17,12,44,16.60
2011,06,17,12,45,16.50
2011,06,17,12,46,16.40
2011,06,17,12,47,16.40
2011,06,17,12,48,16.30
2011,06,17,12,49,16.20
2011,06,17,12,50,16.10
2011,06,17,12,51,16.20
2011,06,17,12,52,16.30
2011,06,17,12,53,16.20
2011,06,17,12,54,16.20
2011,06,17,12,55,16.30
2011,06,17,12,56,16.40
2011,06,17,12,57,16.50
2011,06,17,12,58,16.50
2011,06,17,12,59,16.60
2011,06,17,13,00,16.60
2011,06,17,13,01,16.60
2011,06,17,13,02,16.50
2011,06,17,13,03,16.50
2011,06,17,13,04,16.40
2011,06,17,13,05,16.40
2011,06,17,13,06,16.30
2011,06,17,13,07,16.30
2011,06,17,13,08,16.20
2011,06,17,13,09,16.20
2011,06,17,13,10,16.30
2011,06,17,13,11,16.50
2011,06,17,13,12,16.60
2011,06,17,13,13,16.70
2011,06,17,13,14,16.70
2011,06,17,13,15,16.70
2011,06,17,13,16,16.70
2011,06,17,13,17,16.70
2011,06,17,13,18,16.70
2011,06,17,13,19,16.60
2011,06,17,13,20,16.60
2011,06,17,13,21,16.60
2011,06,17,13,22,16.50
2011,06,17,13,23,16.40
2011,06,17,13,24,16.40
2011,06,17,13,25,16.30
2011,06,17,13,26,16.30
2011,06,17,13,27,16.30
2011,06,17,13,28,16.20
2011,06,17,13,29,16.30
2011,06,17,13,30,16.30
2011,06,17,13,31,16.30
2011,06,17,13,32,16.40
2011,06,17,13,33,16.30
2011,06,17,13,34,16.20
2011,06,17,13,35,16.20
2011,06,17,13,36,16.30
2011,06,17,13,37,16.50
2011,06,17,13,38,16.60
2011,06,17,13,39,16.60
2011,06,17,13,40,16.70
2011,06,17,13,41,16.80
2011,06,17,13,42,16.80
2011,06,17,13,43,16.80
2011,06,17,13,44,16.80
2011,06,17,13,45,16.80
2011,06,17,13,46,16.90
2011,06,17,13,47,17.00
2011,06,17,13,48,17.10
2011,06,17,13,49,17.20
2011,06,17,13,50,17.30
2011,06,17,13,51,17.40
2011,06,17,13,52,17.40
2011,06,17,13,53,17.30
2011,06,17,13,54,17.30
2011,06,17,13,55,17.20
2011,06,17,13,56,17.30
2011,06,17,13,57,17.30
2011,06,17,13,58,17.40
2011,06,17,13,59,17.40
2011,06,17,14,00,17.50
2011,06,17,14,01,17.50
2011,06,17,14,02,17.40
2011,06,17,14,03,17.40
2011,06,17,14,04,17.30
2011,06,17,14,05,17.30
2011,06,17,14,06,17.30
2011,06,17,14,07,17.40
2011,06,17,14,08,17.40
2011,06,17,14,09,17.30
2011,06,17,14,10,17.20
2011,06,17,14,11,17.20
2011,06,17,14,12,17.20
2011,06,17,14,13,17.40
2011,06,17,14,14,17.50
2011,06,17,14,15,17.60
2011,06,17,14,16,17.60
2011,06,17,14,17,17.70
2011,06,17,14,18,17.70
2011,06,17,14,19,17.80
2011,06,17,14,20,17.80
2011,06,17,14,21,17.90
2011,06,17,14,22,17.90
2011,06,17,14,23,18.00
2011,06,17,14,24,18.00
2011,06,17,14,25,18.00
2011,06,17,14,26,17.90
2011,06,17,14,27,17.80
2011,06,17,14,28,17.70
2011,06,17,14,29,17.70
2011,06,17,14,30,17.60
2011,06,17,14,31,17.60
2011,06,17,14,32,17.60
2011,06,17,14,33,17.60
2011,06,17,14,34,17.60
2011,06,17,14,35,17.60
2011,06,17,14,36,17.50
2011,06,17,14,37,17.50
2011,06,17,14,38,17.40
2011,06,17,14,39,17.30
2011,06,17,14,40,17.30
2011,06,17,14,41,17.30
2011,06,17,14,42,17.40
2011,06,17,14,43,17.50
2011,06,17,14,44,17.70
2011,06,17,14,45,17.70
2011,06,17,14,46,17.80
2011,06,17,14,47,17.80
2011,06,17,14,48,17.70
2011,06,17,14,49,17.70
2011,06,17,14,50,17.80
2011,06,17,14,51,17.80
2011,06,17,14,52,17.90
2011,06,17,14,53,17.90
2011,06,17,14,54,17.90
2011,06,17,14,55,17.80
2011,06,17,14,56,17.80
2011,06,17,14,57,17.80
2011,06,17,14,58,17.80
2011,06,17,14,59,17.80
2011,06,17,15,00,17.70
2011,06,17,15,01,17.50
2011,06,17,15,02,17.30
2011,06,17,15,03,17.10
2011,06,17,15,04,17.00
2011,06,17,15,05,16.90
2011,06,17,15,06,16.90
2011,06,17,15,07,16.90
2011,06,17,15,08,16.80
2011,06,17,15,09,16.80
2011,06,17,15,10,16.80
2011,06,17,15,11,16.80
2011,06,17,15,12,16.70
2011,06,17,15,13,16.60
2011,06,17,15,14,16.60
2011,06,17,15,15,16.50
2011,06,17,15,16,16.60
2011,06,17,15,17,16.60
2011,06,17,15,18,16.60
2011,06,17,15,19,16.60
2011,06,17,15,20,16.60
2011,06,17,15,21,16.60
2011,06,17,15,22,16.70
2011,06,17,15,23,16.90
2011,06,17,15,24,17.00
2011,06,17,15,25,17.10
2011,06,17,15,26,17.10
2011,06,17,15,27,17.10
2011,06,17,15,28,17.10
2011,06,17,15,29,17.10
2011,06,17,15,30,17.10
2011,06,17,15,31,17.10
2011,06,17,15,32,17.10
2011,06,17,15,33,17.10
2011,06,17,15,34,17.00
2011,06,17,15,35,16.90
2011,06,17,15,36,16.90
2011,06,17,15,37,16.90
2011,06,17,15,38,16.80
2011,06,17,15,39,16.80
2011,06,17,15,40,16.70
2011,06,17,15,41,16.70
2011,06,17,15,42,16.60
2011,06,17,15,43,16.60
2011,06,17,15,44,16.60
2011,06,17,15,45,16.60
2011,06,17,15,46,16.60
2011,06,17,15,47,16.60
2011,06,17,15,48,16.50
2011,06,17,15,49,16.50
2011,06,17,15,50,16.60
2011,06,17,15,51,16.60
2011,06,17,15,52,16.60
2011,06,17,15,53,16.60
2011,06,17,15,54,16.60
2011,06,17,15,55,16.60
2011,06,17,15,56,16.60
2011,06,17,15,57,16.70
2011,06,17,15,58,16.80
2011,06,17,15,59,16.90
2011,06,17,16,00,17.00
2011,06,17,16,01,17.10
2011,06,17,16,02,17.10
2011,06,17,16,03,17.00
2011,06,17,16,04,16.90
2011,06,17,16,05,16.90
2011,06,17,16,06,16.80
2011,06,17,16,07,16.70
2011,06,17,16,08,16.70
2011,06,17,16,09,16.70
2011,06,17,16,10,16.80
2011,06,17,16,11,16.80
2011,06,17,16,12,16.80
2011,06,17,16,13,16.80
2011,06,17,16,14,16.80
2011,06,17,16,15,16.80
2011,06,17,16,16,16.80
2011,06,17,16,17,16.90
2011,06,17,16,18,16.90
2011,06,17,16,19,16.90
2011,06,17,16,20,16.90
2011,06,17,16,21,17.00
2011,06,17,16,22,17.10
2011,06,17,16,23,17.10
2011,06,17,16,24,17.20
2011,06,17,16,25,17.30
2011,06,17,16,26,17.30
2011,06,17,16,27,17.40
2011,06,17,16,28,17.40
2011,06,17,16,29,17.50
2011,06,17,16,30,17.60
2011,06,17,16,31,17.70
2011,06,17,16,32,17.80
2011,06,17,16,33,17.90
2011,06,17,16,34,18.00
2011,06,17,16,35,18.10
2011,06,17,16,36,18.10
2011,06,17,16,37,18.10
2011,06,17,16,38,18.20
2011,06,17,16,39,18.20
2011,06,17,16,40,18.30
2011,06,17,16,41,18.30
2011,06,17,16,42,18.40
2011,06,17,16,43,18.40
2011,06,17,16,44,18.40
2011,06,17,16,45,18.40
2011,06,17,16,46,18.40
2011,06,17,16,47,18.50
2011,06,17,16,48,18.60
2011,06,17,16,49,18.60
2011,06,17,16,50,18.50
2011,06,17,16,51,18.50
2011,06,17,16,52,18.50
2011,06,17,16,53,18.60
2011,06,17,16,54,18.50
2011,06,17,16,55,18.50
2011,06,17,16,56,18.60
2011,06,17,16,57,18.70
2011,06,17,16,58,18.70
2011,06,17,16,59,18.70
2011,06,17,17,00,18.80
2011,06,17,17,01,18.90
2011,06,17,17,02,18.90
2011,06,17,17,03,18.90
2011,06,17,17,04,18.90
2011,06,17,17,05,18.90
2011,06,17,17,06,18.80
2011,06,17,17,07,18.80
2011,06,17,17,08,18.70
2011,06,17,17,09,18.70
2011,06,17,17,10,18.60
2011,06,17,17,11,18.60
2011,06,17,17,12,18.60
2011,06,17,17,13,18.50
2011,06,17,17,14,18.50
2011,06,17,17,15,18.50
2011,06,17,17,16,18.60
2011,06,17,17,17,18.60
2011,06,17,17,18,18.70
2011,06,17,17,19,18.70
2011,06,17,17,20,18.70
2011,06,17,17,21,18.70
2011,06,17,17,22,18.70
2011,06,17,17,23,18.70
2011,06,17,17,24,18.70
2011,06,17,17,25,18.70
2011,06,17,17,26,18.70
2011,06,17,17,27,18.70
2011,06,17,17,28,18.60
2011,06,17,17,29,18.60
2011,06,17,17,30,18.50
2011,06,17,17,31,18.60
2011,06,17,17,32,18.60
2011,06,17,17,33,18.60
2011,06,17,17,34,18.60
2011,06,17,17,35,18.60